Find Kosmos-209

NORAD ID: 3158 Int'l Des: 1968-023 Owner: TSKBM Country: SU operational
LEOCIRCULAR

Live Position

Loading 3D Globe...

About Kosmos-209

Description loading...

Upcoming Passes

Passes for default location (London). Set your location on the main map for personalized predictions.

Altitude History

Loading altitude history...

Two-Line Element Set

1 3158U 68023A 26104.45345214 -.00000078 00000-0 80922-5 0 9999
2 3158 65.3340 1.5618 0050692 268.7885 90.7377 13.97930205962107
Epoch: Apr 14, 2026 • Age: 12 hours

Current Status

Altitude 888.2 km
Velocity 7.43 km/s
Sub-Earth Point -61.95°S, 120.06°E
Type other

Most Searched